AZERSPACE 2 (IS-38) (43632 NORAD) Tracking and Keplerian Element Data

This shows tracking and keplerian element data for the satellite.

Feedback or suggestion? Click here.




ElementValue
Catalog43632
NameAZERSPACE 2 (IS-38)
Epoch Orbit263
Epoch Day144.48273618
Epoch Year2019
RAAN333.6545
Inclination0.0137
Eccentricity0.0001567
Argument of Perigee100.4141
Mean Anonmoly26.6309
Mean Motion1.00272079
Decay Rate1.3E-06
L11 43632U 18074A 19144.48273618 .00000130 00000-0 00000+0 0 9999
L22 43632 0.0137 333.6545 0001567 100.4141 26.6309 1.00272079 2635

Live tracking and technical data element details for AZERSPACE 2 (IS-38) (NORAD 43632). AZERSPACE 2 (IS-38) can be tracked NOW for your location showing map with azimuth and elevation plus other details from your city location.

Track the satellite on the map from your city or location and see movement details for azimuth, elevation, latitude, longitude, range, height, and movement on the map or in text.







IsCatalogInMostPopularTable: catalog: 43632, numindb: 142
Update: records affected: 1



GetName: 43632 AZERSPACE 2 (IS-38)

Hit Count: updated at: Fri, 24 May 2019 21:04:12 GMT